When you browse on this site, cookies collect data to enhance your experience and personalize the content and advertising you see.
Visit our Privacy Policy to learn more. By continuing to use the site, you agree to this use of cookies and data.
  • In Austria
  • List of Countries
  • For 7 days
  • Water Temperature
  • Weather Map
  • News
  • Weather Widgets
  • user-avatar
    Login

    Hourly Weather Roi Et

    Today, 18 August, Sunday

    Time Temperature Precipitation Wind Pressure Humidity
    00:00 +28°C° 0.2 mm 4 mps 744 mmHg 85%
    01:00 +28°C° 0 mm 4 mps 744 mmHg 84%
    02:00 +27°C° 0 mm 4 mps 744 mmHg 86%
    03:00 +27°C° 0 mm 3 mps 743 mmHg 87%
    04:00 +27°C° 0 mm 3 mps 743 mmHg 88%
    05:00 +27°C° 0 mm 3 mps 743 mmHg 88%
    06:00 +27°C° 0 mm 3 mps 744 mmHg 88%
    07:00 +27°C° 0 mm 3 mps 745 mmHg 85%
    08:00 +29°C° 0 mm 4 mps 745 mmHg 80%
    09:00 +30°C° 0 mm 4 mps 745 mmHg 75%
    10:00 +32°C° 0 mm 5 mps 745 mmHg 70%
    11:00 +33°C° 0 mm 5 mps 745 mmHg 66%
    12:00 +34°C° 0 mm 5 mps 744 mmHg 62%
    13:00 +35°C° 0 mm 5 mps 744 mmHg 59%
    14:00 +35°C° 0.1 mm 5 mps 743 mmHg 59%
    15:00 +35°C° 0.1 mm 5 mps 743 mmHg 58%
    16:00 +35°C° 0.1 mm 5 mps 742 mmHg 58%
    17:00 +34°C° 0.2 mm 5 mps 742 mmHg 63%
    18:00 +33°C° 0.2 mm 4 mps 742 mmHg 67%
    19:00 +31°C° 0.2 mm 3 mps 743 mmHg 72%
    20:00 +30°C° 0 mm 3 mps 743 mmHg 74%
    21:00 +30°C° 0 mm 3 mps 744 mmHg 76%
    22:00 +29°C° 0 mm 4 mps 744 mmHg 78%
    23:00 +29°C° 0 mm 4 mps 744 mmHg 79%

    Tomorrow, 19 August, Monday

    Time Temperature Precipitation Wind Pressure Humidity
    00:00 +29°C° 0 mm 4 mps 744 mmHg 80%
    01:00 +29°C° 0 mm 4 mps 743 mmHg 81%
    02:00 +28°C° 0 mm 3 mps 743 mmHg 82%
    03:00 +28°C° 0 mm 3 mps 743 mmHg 82%
    04:00 +28°C° 0 mm 3 mps 743 mmHg 83%
    05:00 +28°C° 0 mm 3 mps 743 mmHg 83%
    06:00 +28°C° 0 mm 3 mps 743 mmHg 83%
    07:00 +28°C° 0 mm 3 mps 743 mmHg 84%
    08:00 +29°C° 0 mm 4 mps 744 mmHg 79%
    09:00 +30°C° 0 mm 5 mps 744 mmHg 74%
    10:00 +32°C° 0 mm 6 mps 744 mmHg 69%
    11:00 +33°C° 0 mm 6 mps 744 mmHg 66%
    12:00 +34°C° 0 mm 6 mps 743 mmHg 62%
    13:00 +35°C° 0 mm 6 mps 743 mmHg 59%
    14:00 +35°C° 0.2 mm 5 mps 742 mmHg 60%
    15:00 +34°C° 0.2 mm 5 mps 741 mmHg 62%
    16:00 +34°C° 0.2 mm 5 mps 741 mmHg 63%
    17:00 +33°C° 0 mm 4 mps 741 mmHg 66%
    18:00 +32°C° 0 mm 4 mps 741 mmHg 69%
    19:00 +30°C° 0 mm 3 mps 741 mmHg 72%
    20:00 +29°C° 0 mm 3 mps 742 mmHg 73%
    21:00 +29°C° 0 mm 3 mps 742 mmHg 74%
    22:00 +29°C° 0 mm 3 mps 743 mmHg 75%
    23:00 +29°C° 0.1 mm 3 mps 743 mmHg 77%

    Day after tomorrow, 20 August, Tuesday

    Time Temperature Precipitation Wind Pressure Humidity
    00:00 +29°C° 0.1 mm 3 mps 742 mmHg 78%
    01:00 +28°C° 0.1 mm 3 mps 742 mmHg 79%
    02:00 +28°C° 0 mm 4 mps 742 mmHg 79%
    03:00 +28°C° 0 mm 4 mps 741 mmHg 79%
    04:00 +28°C° 0 mm 4 mps 741 mmHg 79%
    05:00 +28°C° 0 mm 4 mps 741 mmHg 81%
    06:00 +28°C° 0 mm 4 mps 742 mmHg 82%
    07:00 +28°C° 0 mm 4 mps 742 mmHg 83%
    08:00 +28°C° 0.1 mm 4 mps 742 mmHg 80%
    09:00 +29°C° 0.1 mm 5 mps 742 mmHg 76%
    10:00 +30°C° 0.1 mm 5 mps 743 mmHg 73%
    11:00 +32°C° 0.5 mm 5 mps 742 mmHg 70%
    12:00 +33°C° 0.5 mm 5 mps 742 mmHg 67%
    13:00 +34°C° 0.5 mm 6 mps 741 mmHg 65%
    14:00 +33°C° 1.7 mm 5 mps 741 mmHg 67%
    15:00 +33°C° 1.7 mm 4 mps 740 mmHg 69%
    16:00 +33°C° 1.7 mm 3 mps 740 mmHg 71%
    17:00 +31°C° 1 mm 3 mps 740 mmHg 74%
    18:00 +30°C° 1 mm 3 mps 740 mmHg 78%
    19:00 +29°C° 1 mm 2 mps 741 mmHg 81%
    20:00 +29°C° 0.1 mm 2 mps 741 mmHg 82%
    21:00 +28°C° 0.1 mm 3 mps 742 mmHg 84%
    22:00 +28°C° 0.1 mm 3 mps 742 mmHg 85%
    23:00 +28°C° 0 mm 3 mps 742 mmHg 85%

    21 August, Wednesday

    Time Temperature Precipitation Wind Pressure Humidity
    00:00 +27°C° 0 mm 3 mps 742 mmHg 85%
    01:00 +27°C° 0 mm 3 mps 741 mmHg 86%
    02:00 +27°C° 0.1 mm 3 mps 741 mmHg 86%
    03:00 +27°C° 0.1 mm 3 mps 741 mmHg 86%
    04:00 +26°C° 0.1 mm 3 mps 741 mmHg 86%
    05:00 +27°C° 0 mm 3 mps 741 mmHg 86%
    06:00 +27°C° 0 mm 3 mps 742 mmHg 86%
    07:00 +27°C° 0 mm 3 mps 742 mmHg 85%
    08:00 +28°C° 0 mm 3 mps 742 mmHg 81%
    09:00 +29°C° 0 mm 4 mps 743 mmHg 76%
    10:00 +30°C° 0 mm 5 mps 743 mmHg 71%
    11:00 +32°C° 0.2 mm 5 mps 743 mmHg 67%
    12:00 +33°C° 0.2 mm 5 mps 742 mmHg 63%
    13:00 +35°C° 0.2 mm 5 mps 741 mmHg 59%
    14:00 +35°C° 0.3 mm 5 mps 741 mmHg 59%
    15:00 +35°C° 0.3 mm 5 mps 741 mmHg 59%
    16:00 +35°C° 0.3 mm 5 mps 740 mmHg 59%
    17:00 +34°C° 0.1 mm 4 mps 741 mmHg 64%
    18:00 +32°C° 0.1 mm 4 mps 741 mmHg 69%
    19:00 +30°C° 0.1 mm 3 mps 741 mmHg 73%
    20:00 +30°C° 0.1 mm 4 mps 742 mmHg 76%
    21:00 +29°C° 0.1 mm 4 mps 743 mmHg 78%
    22:00 +28°C° 0.1 mm 4 mps 743 mmHg 80%
    23:00 +28°C° 0 mm 4 mps 743 mmHg 81%

    22 August, Thursday

    Time Temperature Precipitation Wind Pressure Humidity
    00:00 +27°C° 0 mm 4 mps 743 mmHg 82%
    01:00 +27°C° 0 mm 4 mps 742 mmHg 83%
    02:00 +27°C° 0 mm 4 mps 742 mmHg 83%
    03:00 +27°C° 0 mm 4 mps 742 mmHg 83%
    04:00 +26°C° 0 mm 3 mps 742 mmHg 84%
    05:00 +27°C° 0 mm 4 mps 742 mmHg 84%
    06:00 +27°C° 0 mm 4 mps 743 mmHg 84%
    07:00 +27°C° 0 mm 4 mps 743 mmHg 85%
    08:00 +28°C° 0 mm 4 mps 744 mmHg 81%
    09:00 +29°C° 0 mm 5 mps 744 mmHg 77%
    10:00 +30°C° 0 mm 5 mps 744 mmHg 73%
    11:00 +32°C° 0 mm 5 mps 744 mmHg 68%
    12:00 +33°C° 0 mm 6 mps 743 mmHg 63%
    13:00 +35°C° 0 mm 6 mps 743 mmHg 58%
    14:00 +35°C° 0.3 mm 6 mps 742 mmHg 59%
    15:00 +35°C° 0.3 mm 6 mps 742 mmHg 60%
    16:00 +35°C° 0.3 mm 6 mps 742 mmHg 60%
    17:00 +33°C° 0.6 mm 5 mps 742 mmHg 65%
    18:00 +32°C° 0.6 mm 4 mps 742 mmHg 70%
    19:00 +30°C° 0.6 mm 4 mps 743 mmHg 74%
    20:00 +29°C° 0.1 mm 3 mps 744 mmHg 76%
    21:00 +29°C° 0.1 mm 3 mps 744 mmHg 77%
    22:00 +28°C° 0.1 mm 2 mps 745 mmHg 79%
    23:00 +28°C° 0 mm 2 mps 745 mmHg 79%

    23 August, Friday

    Time Temperature Precipitation Wind Pressure Humidity
    00:00 +28°C° 0 mm 2 mps 744 mmHg 80%
    01:00 +28°C° 0 mm 2 mps 744 mmHg 80%
    02:00 +27°C° 0 mm 2 mps 744 mmHg 80%
    03:00 +27°C° 0 mm 2 mps 744 mmHg 81%
    04:00 +27°C° 0 mm 2 mps 744 mmHg 81%
    05:00 +27°C° 0 mm 2 mps 744 mmHg 82%
    06:00 +27°C° 0 mm 2 mps 744 mmHg 83%
    07:00 +27°C° 0 mm 2 mps 745 mmHg 84%
    08:00 +29°C° 0 mm 3 mps 745 mmHg 79%
    09:00 +30°C° 0 mm 4 mps 745 mmHg 75%
    10:00 +32°C° 0 mm 5 mps 745 mmHg 70%
    11:00 +33°C° 0.1 mm 5 mps 745 mmHg 66%
    12:00 +34°C° 0.1 mm 5 mps 744 mmHg 62%
    13:00 +35°C° 0.1 mm 4 mps 743 mmHg 58%
    14:00 +35°C° 1.1 mm 4 mps 743 mmHg 59%
    15:00 +35°C° 1.1 mm 4 mps 742 mmHg 61%
    16:00 +35°C° 1.1 mm 3 mps 742 mmHg 62%
    17:00 +34°C° 0.3 mm 3 mps 742 mmHg 66%
    18:00 +33°C° 0.3 mm 3 mps 742 mmHg 71%
    19:00 +31°C° 0.3 mm 2 mps 743 mmHg 75%
    20:00 +30°C° 0 mm 2 mps 743 mmHg 77%
    21:00 +30°C° 0 mm 2 mps 744 mmHg 79%
    22:00 +29°C° 0 mm 3 mps 744 mmHg 81%
    23:00 +29°C° 0.4 mm 3 mps 744 mmHg 82%
    Show more